Regional Weather Roundup
Issued by NWS

Home | Current Version | Previous Version | Graphics & Text | Print | Product List | Glossary On
Versions: 1 2 3 4 5 6 7 8 9 10 11 12 13 14 15 16 17 18 19 20 21 22 23 24 25 26 27 28 29 30 31 32 33 34 35 36 37 38 39 40 41 42 43 44 45 46 47 48 49 50
000
ASUS43 KBIS 281910
RWRND

NORTH DAKOTA REGIONAL WEATHER ROUNDUP
NATIONAL WEATHER SERVICE BISMARCK ND
200 PM CDT MON JUL 28 2014

NOTE: "FAIR" INDICATES FEW OR NO CLOUDS BELOW 12,000 FEET WITH NO
SIGNIFICANT WEATHER AND/OR OBSTRUCTIONS TO VISIBILITY.


NDZ001>003-009>011-017-282000-
NORTHWEST NORTH DAKOTA

CITY           SKY/WX    TMP DP  RH WIND       PRES   REMARKS
WILLISTON      SUNNY     79  51  37 VRB3      30.28F
MINOT          MOSUNNY   72  50  45 CALM      30.29F
MINOT AFB      SUNNY     73  54  51 VRB5      30.29S
$$

NDZ018>021-031>035-040>046-282000-
SOUTHWEST NORTH DAKOTA

CITY           SKY/WX    TMP DP  RH WIND       PRES   REMARKS
BISMARCK       PTSUNNY   73  49  42 VRB5      30.31F
DICKINSON      MOSUNNY   73  52  47 E6        30.30F
GARRISON         N/A     70  56  61 VRB3      30.31S
HETTINGER ARPT MOSUNNY   76  52  43 E9        30.32F
$$

NDZ004>008-012>016-024-026-027-054-282000-
NORTHEAST NORTH DAKOTA

CITY           SKY/WX    TMP DP  RH WIND       PRES   REMARKS
GRAND FORKS    PTSUNNY   72  55  55 N8        30.24F
GRND FRKS AFB  PTSUNNY   74  57  55 N13       30.26F
DEVILS LAKE    PTSUNNY   70  52  52 N7        30.27F
$$

NDZ022-023-025-028>030-036>039-047>053-282000-
SOUTHEAST NORTH DAKOTA

CITY           SKY/WX    TMP DP  RH WIND       PRES   REMARKS
FARGO          PTSUNNY   75  52  44 N14       30.25S
JAMESTOWN      CLOUDY    69  51  52 NW8       30.28F
$$




USA.gov is the U.S. government's official web portal to all federal, state and local government web resources and services.